Location: Newark
(55.7083°N, 13.1992°E)
Time: 06:27:44
(UTC+00:00)

Transit 4A - Pass Details

Date: 23 February 2020
Orbit: 871 x 973 km, 66.8° (Epoch: 07 April)

Event Time Altitude Azimuth Distance (km) Brightness Sun altitude
Exits shadow 00:11:52 16° 44° (NE) 2,152 10.2 -43.3°
Drops below altitude 10° 00:12:53 10° 44° (NE) 2,531 10.7 -43.3°
Sets 00:15:22 0° 44° (NE) 3,472 11.6 -43.1°
